Date,TemperatureHighF,TemperatureAvgF,TemperatureLowF,DewpointHighF,DewpointAvgF,DewpointLowF,HumidityHigh,HumidityAvg,HumidityLow,PressureMaxIn,PressureMinIn,WindSpeedMaxMPH,WindSpeedAvgMPH,GustSpeedMaxMPH,PrecipitationSumIn
2013-10-1,95.4,77.9,56.1,54.9,45.0,33.7,64,34,12,29.87,29.74,15,2,15,0.00
2013-10-2,95.5,78.8,61.8,54.2,49.2,44.1,72,38,19,29.86,29.70,14,2,17,0.00
2013-10-3,92.2,79.3,65.4,57.8,43.6,19.9,65,31,14,29.77,29.63,17,2,17,0.00
2013-10-4,80.2,72.9,66.2,29.8,22.9,10.0,22,16,9,30.06,29.76,31,11,31,0.00
2013-10-5,82.3,70.6,58.4,34.0,26.9,19.5,31,20,10,30.21,30.05,22,4,22,0.00
2013-10-6,89.3,73.2,51.1,37.7,23.9,9.2,44,17,5,30.14,29.94,17,2,17,0.00
2013-10-7,89.3,70.3,51.3,50.1,32.5,14.3,55,26,12,29.96,29.79,6,1,6,0.00
2013-10-8,91.5,75.1,51.2,45.2,31.7,18.2,59,23,7,29.81,29.62,21,2,21,0.00
2013-10-9,73.5,68.0,62.2,46.2,43.6,38.9,52,42,32,29.72,29.60,24,4,24,0.00
2013-10-10,75.3,63.4,52.0,49.5,42.8,36.8,77,50,26,29.95,29.72,16,1,16,0.00
2013-10-11,80.8,64.9,47.5,45.7,39.9,34.9,70,42,22,30.02,29.88,15,1,15,0.00
2013-10-12,83.3,67.4,47.9,48.8,40.7,35.1,68,40,23,29.94,29.80,8,1,14,0.00
2013-10-13,85.8,70.2,53.4,49.0,39.6,33.1,72,36,16,29.92,29.79,20,2,20,0.00
2013-10-14,83.3,68.8,51.5,44.3,37.3,28.8,75,35,17,30.05,29.90,15,2,15,0.00
2013-10-15,83.3,67.9,51.4,44.9,32.9,25.5,65,30,13,29.97,29.86,22,3,22,0.00
2013-10-16,83.3,69.4,54.8,39.5,30.9,26.0,38,25,14,30.10,29.96,17,2,17,0.00
2013-10-17,87.5,65.1,44.4,38.2,28.1,15.2,55,28,8,30.05,29.86,11,1,11,0.00
2013-10-18,88.4,67.2,45.0,38.4,26.7,20.3,52,24,10,30.01,29.89,10,1,14,0.00
2013-10-19,90.6,69.3,48.0,36.6,27.2,21.2,47,23,8,30.03,29.88,11,1,11,0.00
2013-10-20,90.5,68.8,46.4,39.9,27.0,17.7,60,23,9,29.93,29.78,7,1,7,0.00
2013-10-21,88.3,69.1,47.3,45.6,27.6,17.6,47,23,9,29.95,29.83,7,1,11,0.00
2013-10-22,88.4,68.0,49.5,41.9,30.3,20.7,53,26,13,30.00,29.83,15,2,15,0.00
2013-10-23,90.3,71.7,54.6,52.2,32.5,23.6,45,25,12,29.88,29.76,13,1,13,0.00
2013-10-24,88.8,70.8,52.7,48.1,33.1,24.9,53,26,13,29.91,29.79,9,1,9,0.00
2013-10-25,90.3,69.9,48.0,46.0,35.5,27.9,60,31,12,30.04,29.91,8,1,8,0.00
2013-10-26,88.8,71.0,53.0,49.6,37.0,27.8,53,30,18,30.06,29.91,16,2,16,0.00
2013-10-27,92.3,73.2,51.2,41.7,34.7,27.5,52,27,11,29.91,29.65,12,1,12,0.00
2013-10-28,77.9,70.4,60.2,50.0,44.2,33.7,53,39,23,29.84,29.64,33,5,33,0.00
2013-10-29,73.0,61.4,52.8,46.7,41.2,36.3,71,49,29,29.92,29.83,18,1,18,0.00
2013-10-30,76.2,60.5,49.2,42.1,37.4,29.5,75,45,23,30.04,29.90,19,1,19,0.00
2013-10-31,79.2,59.5,40.3,36.7,31.3,27.4,66,37,17,30.15,30.00,13,1,13,0.00